Location: Caltech
(34.1382°N, 118.1253°W)
Time: 15:26:04
(UTC-07:00)

Cosmos 1833 Rocket - Visible Passes

Search period start: 28 June 2016 00:00
Search period end: 08 July 2016 00:00
Orbit: 834 x 839 km, 71.0° (Epoch: 28 June)

Date Brightness Start Highest point End Pass type
(mag) Time Alt. Az. Time Alt. Az. Time Alt. Az.
28 Jun 3.3 04:45:47 10° NNW 04:51:20 62° ENE 04:56:53 10° SSE visible
29 Jun 3.4 04:29:09 10° NNW 04:34:40 56° ENE 04:40:09 10° SE visible
30 Jun 3.6 04:12:31 10° N 04:18:00 51° ENE 04:23:25 10° SE visible
01 Jul 3.7 03:55:54 10° N 04:01:18 47° ENE 04:06:40 10° SE visible
02 Jul 3.8 03:39:16 10° N 03:44:37 43° ENE 03:49:55 10° SE visible
03 Jul 4.0 03:22:40 10° N 03:27:55 39° ENE 03:33:08 10° SE visible
03 Jul 3.8 05:07:13 10° NW 05:11:32 23° W 05:15:50 10° SSW visible
04 Jul 4.1 03:06:05 10° N 03:11:13 36° ENE 03:16:20 10° SE visible
04 Jul 3.7 04:50:24 10° NW 04:54:54 25° WSW 04:59:24 10° SSW visible
05 Jul 4.2 02:49:29 10° N 02:54:32 33° ENE 02:59:32 10° SE visible
05 Jul 3.6 04:33:35 10° NW 04:38:16 28° WSW 04:42:30 12° SSW visible
06 Jul 4.3 02:32:55 10° N 02:37:50 30° ENE 02:42:34 11° ESE visible
06 Jul 3.4 04:16:47 10° NW 04:21:38 31° WSW 04:24:08 22° SW visible
07 Jul 4.4 02:16:21 10° N 02:21:07 28° ENE 02:24:40 15° ESE visible
07 Jul 3.3 04:00:01 10° NW 04:05:00 34° WSW 04:06:15 30° SW visible
